EW7397 Weather Reports


Display with metric or nautical units.
time (UTC)temp
F
wind
direction
speed
MPH
gust
MPH
rain 1hr
in
rain 24hr
in
rain mn
in
humidity
%
barometer
mb
20260906031005 64 0 0.0 0.0 0.00 0.00 0.00 84 1023.2
20260906030503 64 331 0.0 1.0 0.00 0.00 0.00 83 1023.2
20260906030004 64 331 0.0 1.0 0.00 0.00 0.00 83 1023.2
20260906025712 64 331 0.0 1.0 0.00 0.00 0.00 83 1023.2
20260906025211 64 0 0.0 0.0 0.00 0.00 0.00 82 1023.3
20260906024503 64 331 0.0 1.0 0.00 0.00 0.00 82 1023.1
20260906024003 64 331 0.0 3.0 0.00 0.00 0.00 83 1023.1
20260906023712 64 331 0.0 3.0 0.00 0.00 0.00 83 1023.1
20260906023003 64 331 0.0 2.0 0.00 0.00 0.00 82 1023.0
20260906022503 64 331 0.0 2.0 0.00 0.00 0.00 82 1023.1
20260906022005 65 331 0.0 2.0 0.00 0.00 0.00 82 1023.1
20260906021503 65 331 0.0 1.0 0.00 0.00 0.00 82 1023.0
20260906021003 65 331 0.0 1.0 0.00 0.00 0.00 82 1022.9
20260906020505 65 331 0.0 1.0 0.00 0.00 0.00 82 1023.0
20260906020004 65 331 0.0 1.0 0.00 0.00 0.00 82 1023.0
20260906015503 65 0 0.0 0.0 0.00 0.00 0.00 81 1023.0
20260906015005 65 331 0.0 1.0 0.00 0.00 0.00 81 1022.9
20260906014503 65 331 0.0 1.0 0.00 0.00 0.00 82 1022.9
20260906014003 65 0 0.0 0.0 0.00 0.00 0.00 82 1022.9
20260906013505 65 0 0.0 0.0 0.00 0.00 0.00 82 1022.9
20260906013003 65 0 0.0 0.0 0.00 0.00 0.00 81 1022.8
20260906012503 65 0 0.0 0.0 0.00 0.00 0.00 82 1022.7
20260906012005 65 0 0.0 0.0 0.00 0.00 0.00 81 1022.7
20260906011711 65 0 0.0 0.0 0.00 0.00 0.00 81 1022.7
20260906011003 65 331 1.0 2.0 0.00 0.00 0.00 82 1022.8
20260906010712 65 331 1.0 2.0 0.00 0.00 0.00 82 1022.8
20260906010004 65 331 0.0 2.0 0.00 0.00 0.00 82 1022.7
20260906005503 65 331 0.0 2.0 0.00 0.00 0.00 82 1022.6
20260906005005 65 331 0.0 2.0 0.00 0.00 0.00 81 1022.6
20260906004503 65 0 0.0 0.0 0.00 0.00 0.00 81 1022.7
20260906004003 64 0 0.0 0.0 0.00 0.00 0.00 81 1022.5
20260906003505 64 331 1.0 2.0 0.00 0.00 0.00 81 1022.6
20260906003003 64 331 1.0 3.0 0.00 0.00 0.00 81 1022.6
20260906002503 64 331 1.0 3.0 0.00 0.00 0.00 82 1022.4
20260906002005 64 331 0.0 2.0 0.00 0.00 0.00 82 1022.4
20260906001711 64 331 0.0 2.0 0.00 0.00 0.00 82 1022.5
20260906001003 64 0 0.0 0.0 0.00 0.00 0.00 81 1022.4
20260906000712 64 0 0.0 0.0 0.00 0.00 0.00 81 1022.4
20260906000004 64 331 1.0 2.0 0.00 0.00 0.00 81 1022.2
20260905235503 64 331 1.0 3.0 0.00 0.00 0.00 82 1022.0
20260905235005 64 331 0.0 3.0 0.00 0.00 0.00 81 1022.0
20260905234711 64 331 0.0 3.0 0.00 0.00 0.00 81 1022.0
20260905234210 65 331 0.0 1.0 0.00 0.00 0.00 81 1022.1
20260905233505 65 0 0.0 0.0 0.00 0.00 0.00 79 1022.0
20260905233003 65 0 0.0 0.0 0.00 0.00 0.00 79 1021.9
20260905232503 65 0 0.0 0.0 0.00 0.00 0.00 79 1021.8
20260905232005 65 331 0.0 1.0 0.00 0.00 0.00 79 1021.8
20260905231503 65 331 0.0 1.0 0.00 0.00 0.00 79 1021.9
20260905231003 66 331 0.0 1.0 0.00 0.00 0.00 79 1021.8
20260905230505 66 0 0.0 0.0 0.00 0.00 0.00 78 1021.9
20260905230211 66 0 0.0 0.0 0.00 0.00 0.00 78 1021.9
20260905225711 66 331 0.0 2.0 0.00 0.00 0.00 78 1021.9
20260905225212 66 331 0.0 2.0 0.00 0.00 0.00 78 1021.9
20260905224503 66 331 0.0 1.0 0.00 0.00 0.00 77 1021.8
20260905224003 66 0 0.0 0.0 0.00 0.00 0.00 78 1021.9
20260905223505 66 331 0.0 2.0 0.00 0.00 0.00 77 1021.8
20260905223210 66 331 0.0 2.0 0.00 0.00 0.00 77 1021.7
20260905222503 67 0 0.0 0.0 0.00 0.00 0.00 77 1021.7
20260905222005 67 331 0.0 1.0 0.00 0.00 0.00 77 1021.7
20260905221503 67 331 0.0 1.0 0.00 0.00 0.00 77 1021.7
20260905221003 67 331 0.0 1.0 0.00 0.00 0.00 77 1021.8
20260905220503 67 331 0.0 1.0 0.00 0.00 0.00 77 1021.6
20260905220122 67 0 0.0 0.0 0.00 0.00 0.00 77 1021.7
20260905215503 67 331 0.0 3.0 0.00 0.00 0.00 76 1021.6
20260905215212 67 331 0.0 3.0 0.00 0.00 0.00 76 1021.6
20260905214503 67 331 0.0 1.0 0.00 0.00 0.00 76 1021.5
20260905214003 67 331 0.0 1.0 0.00 0.00 0.00 76 1021.4
20260905213505 67 331 0.0 2.0 0.00 0.00 0.00 76 1021.5
20260905213003 67 331 0.0 2.0 0.00 0.00 0.00 76 1021.4
20260905212711 67 331 0.0 2.0 0.00 0.00 0.00 77 1021.4
20260905212005 67 0 0.0 0.0 0.00 0.00 0.00 75 1021.3
20260905211503 67 0 0.0 0.0 0.00 0.00 0.00 76 1021.2
20260905211210 67 331 0.0 2.0 0.00 0.00 0.00 76 1021.1
20260905210505 67 331 0.0 2.0 0.00 0.00 0.00 75 1021.3
20260905210004 67 331 0.0 1.0 0.00 0.00 0.00 75 1021.1
20260905205503 67 331 0.0 1.0 0.00 0.00 0.00 76 1021.0
20260905205212 67 331 0.0 1.0 0.00 0.00 0.00 76 1020.9
20260905204503 67 0 0.0 0.0 0.00 0.00 0.00 76 1020.9
20260905204003 67 0 0.0 0.0 0.00 0.00 0.00 74 1021.0
20260905203505 67 0 0.0 0.0 0.00 0.00 0.00 75 1020.9
20260905203210 67 0 0.0 0.0 0.00 0.00 0.00 75 1020.9
20260905202503 68 0 0.0 0.0 0.00 0.00 0.00 74 1020.8
20260905202006 68 0 0.0 0.0 0.00 0.00 0.00 74 1020.7
20260905201503 68 0 0.0 0.0 0.00 0.00 0.00 74 1020.8
20260905201003 68 0 0.0 0.0 0.00 0.00 0.00 73 1020.7
20260905200712 68 0 0.0 0.0 0.00 0.00 0.00 73 1020.7
20260905200211 68 0 0.0 0.0 0.00 0.00 0.00 72 1020.6
20260905195505 69 0 0.0 0.0 0.00 0.00 0.00 73 1020.4
20260905195004 69 331 1.0 2.0 0.00 0.00 0.00 72 1020.3
20260905194503 69 331 1.0 3.0 0.00 0.00 0.00 72 1020.4
20260905194005 69 325 1.0 4.0 0.00 0.00 0.00 72 1020.4
20260905193503 70 321 1.0 4.0 0.00 0.00 0.00 72 1020.4
20260905193003 70 319 1.0 4.0 0.00 0.00 0.00 72 1020.3
20260905192505 70 320 1.0 3.0 0.00 0.00 0.00 70 1020.3
20260905192003 70 325 1.0 3.0 0.00 0.00 0.00 71 1020.3
20260905191503 71 326 1.0 3.0 0.00 0.00 0.00 70 1020.4
20260905191005 71 324 0.0 3.0 0.00 0.00 0.00 69 1020.2
20260905190503 71 322 0.0 3.0 0.00 0.00 0.00 70 1020.0
20260905190004 72 322 0.0 1.0 0.00 0.00 0.00 68 1020.0
20260905185712 72 322 0.0 1.0 0.00 0.00 0.00 68 1020.0
20260905185003 72 322 0.0 1.0 0.00 0.00 0.00 68 1020.0
20260905184503 72 322 0.0 2.0 0.00 0.00 0.00 68 1019.9
20260905184005 72 322 0.0 3.0 0.00 0.00 0.00 68 1019.9
20260905183711 72 322 0.0 3.0 0.00 0.00 0.00 68 1019.8
20260905183003 73 322 1.0 1.0 0.00 0.00 0.00 66 1019.7
20260905182712 73 322 1.0 4.0 0.00 0.00 0.00 66 1019.6
20260905182003 73 322 0.0 4.0 0.00 0.00 0.00 67 1019.4
20260905181503 74 322 0.0 2.0 0.00 0.00 0.00 67 1019.2
20260905181005 74 322 1.0 1.0 0.00 0.00 0.00 65 1019.1
20260905180503 74 322 2.0 4.0 0.00 0.00 0.00 65 1019.1
20260905180004 75 326 2.0 4.0 0.00 0.00 0.00 64 1019.0
20260905175505 75 328 2.0 4.0 0.00 0.00 0.00 63 1019.0
20260905175003 76 331 2.0 5.0 0.00 0.00 0.00 62 1018.7
20260905174503 76 346 1.0 5.0 0.00 0.00 0.00 61 1018.7
20260905174005 76 9 0.0 3.0 0.00 0.00 0.00 60 1018.7
20260905173503 76 103 0.0 2.0 0.00 0.00 0.00 58 1018.5
20260905173003 76 103 0.0 2.0 0.00 0.00 0.00 56 1018.5
20260905172712 77 103 0.0 3.0 0.00 0.00 0.00 56 1018.5
20260905172003 77 103 1.0 3.0 0.00 0.00 0.00 56 1018.6
20260905171503 77 107 1.0 2.0 0.00 0.00 0.00 56 1018.6
20260905171005 77 110 2.0 5.0 0.00 0.00 0.00 55 1018.6
20260905170503 77 109 1.0 5.0 0.00 0.00 0.00 55 1018.6
20260905170004 77 100 1.0 3.0 0.00 0.00 0.00 55 1018.5
20260905165505 77 88 2.0 4.0 0.00 0.00 0.00 55 1018.4
20260905165003 78 101 2.0 6.0 0.00 0.00 0.00 55 1018.4
20260905164503 78 106 2.0 6.0 0.00 0.00 0.00 55 1018.3
20260905164005 78 100 2.0 7.0 0.00 0.00 0.00 54 1018.3
20260905163503 78 101 2.0 7.0 0.00 0.00 0.00 54 1018.2
20260905163003 78 85 2.0 7.0 0.00 0.00 0.00 53 1018.1
20260905162505 79 60 2.0 6.0 0.00 0.00 0.00 52 1018.1
20260905162003 79 71 2.0 5.0 0.00 0.00 0.00 52 1018.1
20260905161503 79 67 2.0 7.0 0.00 0.00 0.00 52 1018.1
20260905161005 79 68 2.0 7.0 0.00 0.00 0.00 51 1018.0
20260905160507 80 72 2.0 6.0 0.00 0.00 0.00 51 1018.1
20260905160006 80 77 2.0 9.0 0.00 0.00 0.00 50 1018.0
20260905155511 80 85 2.0 9.0 0.00 0.00 0.00 49 1017.9
20260905155003 80 60 3.0 9.0 0.00 0.00 0.00 49 1017.9
20260905154506 81 45 3.0 10.0 0.00 0.00 0.00 49 1017.8
20260905154003 81 51 3.0 10.0 0.00 0.00 0.00 49 1017.5
20260905153503 81 50 3.0 8.0 0.00 0.00 0.00 49 1017.5
20260905153006 81 56 3.0 11.0 0.00 0.00 0.00 48 1017.6
20260905152503 81 68 3.0 11.0 0.00 0.00 0.00 48 1017.7
20260905152003 81 77 4.0 10.0 0.00 0.00 0.00 49 1017.6
20260905151505 81 77 5.0 11.0 0.00 0.00 0.00 48 1017.6
20260905151210 81 77 5.0 11.0 0.00 0.00 0.00 48 1017.6
20260905150503 81 66 4.0 13.0 0.00 0.00 0.00 48 1017.6
20260905150005 82 69 3.0 14.0 0.00 0.00 0.00 48 1017.7
20260905145503 82 64 3.0 14.0 0.00 0.00 0.00 48 1017.5
20260905145003 82 75 4.0 9.0 0.00 0.00 0.00 49 1017.6
20260905144505 81 70 5.0 13.0 0.00 0.00 0.00 48 1017.7
20260905144003 81 66 4.0 15.0 0.00 0.00 0.00 48 1017.6
20260905143503 81 74 4.0 15.0 0.00 0.00 0.00 47 1017.8
20260905143005 81 72 4.0 12.0 0.00 0.00 0.00 48 1017.7
20260905142710 81 73 4.0 12.0 0.00 0.00 0.00 48 1017.7
20260905142003 81 65 4.0 12.0 0.00 0.00 0.00 47 1017.7
20260905141505 81 33 4.0 12.0 0.00 0.00 0.00 47 1017.7
20260905141003 81 31 4.0 12.0 0.00 0.00 0.00 47 1017.6
20260905140503 82 50 4.0 12.0 0.00 0.00 0.00 47 1017.6
20260905140005 82 57 4.0 12.0 0.00 0.00 0.00 47 1017.7
20260905135503 82 50 4.0 11.0 0.00 0.00 0.00 47 1017.8
20260905135003 82 44 4.0 12.0 0.00 0.00 0.00 46 1017.8
20260905134505 82 48 4.0 12.0 0.00 0.00 0.00 47 1017.8
20260905134003 82 58 5.0 14.0 0.00 0.00 0.00 46 1017.7
20260905133503 82 65 4.0 14.0 0.00 0.00 0.00 47 1017.7
20260905133005 83 66 3.0 11.0 0.00 0.00 0.00 47 1017.7
20260905132711 83 49 3.0 11.0 0.00 0.00 0.00 46 1017.8
20260905132003 83 43 3.0 13.0 0.00 0.00 0.00 46 1017.6
20260905131505 83 70 3.0 13.0 0.00 0.00 0.00 46 1017.6
20260905131211 83 71 3.0 11.0 0.00 0.00 0.00 46 1017.6
20260905130503 83 53 4.0 11.0 0.00 0.00 0.00 47 1017.5
20260905130005 83 61 6.0 11.0 0.00 0.00 0.00 46 1017.5
20260905125503 83 66 7.0 14.0 0.00 0.00 0.00 47 1017.6
20260905125003 83 63 6.0 16.0 0.00 0.00 0.00 46 1017.5
20260905124505 83 59 5.0 16.0 0.00 0.00 0.00 45 1017.6
20260905124003 83 70 5.0 13.0 0.00 0.00 0.00 46 1017.6
20260905123503 83 69 5.0 13.0 0.00 0.00 0.00 47 1017.4
20260905123005 83 74 5.0 16.0 0.00 0.00 0.00 47 1017.4
20260905122503 82 77 6.0 16.0 0.00 0.00 0.00 46 1017.5
20260905122213 82 77 6.0 16.0 0.00 0.00 0.00 47 1017.4
20260905121505 82 91 7.0 17.0 0.00 0.00 0.00 47 1017.4
20260905121003 82 91 6.0 17.0 0.00 0.00 0.00 47 1017.4
20260905120503 82 92 5.0 15.0 0.00 0.00 0.00 47 1017.4
20260905120212 82 94 6.0 15.0 0.00 0.00 0.00 48 1017.3
20260905115503 82 96 7.0 15.0 0.00 0.00 0.00 48 1017.3
20260905115210 82 96 6.0 15.0 0.00 0.00 0.00 48 1017.3
20260905114505 82 94 6.0 15.0 0.00 0.00 0.00 47 1017.4
20260905114003 82 105 7.0 13.0 0.00 0.00 0.00 47 1017.4
20260905113716 82 114 7.0 14.0 0.00 0.00 0.00 48 1017.3
20260905113212 83 110 6.0 14.0 0.00 0.00 0.00 47 1017.3
20260905112503 82 95 6.0 16.0 0.00 0.00 0.00 48 1017.3
20260905112210 82 93 6.0 16.0 0.00 0.00 0.00 47 1017.3
20260905111505 82 106 6.0 14.0 0.00 0.00 0.00 50 1017.2
20260905111003 82 101 6.0 14.0 0.00 0.00 0.00 49 1017.2
20260905110503 82 96 7.0 14.0 0.00 0.00 0.00 49 1017.3
20260905110005 82 105 8.0 14.0 0.00 0.00 0.00 50 1017.3
20260905105503 82 114 8.0 14.0 0.00 0.00 0.00 49 1017.2
20260905105003 82 99 6.0 16.0 0.00 0.00 0.00 49 1017.1
20260905104505 83 74 5.0 16.0 0.00 0.00 0.00 50 1017.1
20260905104003 82 58 5.0 12.0 0.00 0.00 0.00 50 1017.1
20260905103503 82 61 7.0 15.0 0.00 0.00 0.00 51 1017.2
20260905103005 82 80 7.0 17.0 0.00 0.00 0.00 52 1017.2
20260905102503 82 100 7.0 17.0 0.00 0.00 0.00 51 1017.2
20260905102003 82 95 6.0 17.0 0.00 0.00 0.00 52 1017.0
20260905101505 82 63 6.0 16.0 0.00 0.00 0.00 53 1017.1
20260905101003 82 60 6.0 12.0 0.00 0.00 0.00 54 1016.9
20260905100503 82 61 6.0 14.0 0.00 0.00 0.00 55 1017.0
20260905100005 82 57 6.0 15.0 0.00 0.00 0.00 54 1017.0
20260905095503 82 55 5.0 15.0 0.00 0.00 0.00 55 1016.9
20260905095005 82 54 6.0 15.0 0.00 0.00 0.00 56 1016.9
20260905094505 82 59 7.0 15.0 0.00 0.00 0.00 57 1016.9
20260905094003 82 63 8.0 16.0 0.00 0.00 0.00 57 1016.9
20260905093503 82 79 9.0 16.0 0.00 0.00 0.00 57 1016.6
20260905093005 82 100 9.0 16.0 0.00 0.00 0.00 57 1016.6
20260905092503 83 106 7.0 18.0 0.00 0.00 0.00 58 1016.6
20260905092003 83 95 5.0 18.0 0.00 0.00 0.00 58 1016.7
20260905091505 84 78 5.0 13.0 0.00 0.00 0.00 59 1016.6
20260905091003 84 77 5.0 13.0 0.00 0.00 0.00 59 1016.5
20260905090713 84 78 6.0 13.0 0.00 0.00 0.00 59 1016.3
20260905090211 84 73 5.0 13.0 0.00 0.00 0.00 58 1016.4
20260905085506 84 67 3.0 11.0 0.00 0.00 0.00 57 1016.5
20260905085003 84 72 3.0 10.0 0.00 0.00 0.00 56 1016.3
20260905084505 84 109 4.0 6.0 0.00 0.00 0.00 56 1016.1
20260905084210 84 175 5.0 9.0 0.00 0.00 0.00 57 1016.0
20260905083503 83 207 5.0 9.0 0.00 0.00 0.00 60 1015.8
20260905083005 83 207 4.0 9.0 0.00 0.00 0.00 58 1015.5
20260905082711 83 208 4.0 9.0 0.00 0.00 0.00 59 1015.6
20260905082003 82 209 4.0 8.0 0.00 0.00 0.00 60 1015.5
20260905081505 82 208 4.0 8.0 0.00 0.00 0.00 60 1015.3
20260905081003 81 210 3.0 9.0 0.00 0.00 0.00 62 1015.2
20260905080505 81 209 3.0 9.0 0.00 0.00 0.00 62 1015.2
20260905080004 81 202 3.0 5.0 0.00 0.00 0.00 64 1015.4
20260905075503 80 187 2.0 5.0 0.00 0.00 0.00 63 1015.2
20260905075005 80 165 2.0 5.0 0.00 0.00 0.00 64 1015.1
20260905074503 80 163 3.0 7.0 0.00 0.00 0.00 64 1015.1
20260905074003 79 192 4.0 7.0 0.00 0.00 0.00 64 1015.0
20260905073505 79 204 3.0 8.0 0.00 0.00 0.00 65 1015.1
20260905073003 78 200 4.0 8.0 0.00 0.00 0.00 65 1015.0
20260905072503 77 203 4.0 7.0 0.00 0.00 0.00 66 1015.0
20260905072005 77 204 4.0 7.0 0.00 0.00 0.00 69 1015.0
20260905071503 76 202 4.0 7.0 0.00 0.00 0.00 69 1015.0
20260905071003 76 202 3.0 7.0 0.00 0.00 0.00 69 1014.9
20260905070712 75 199 3.0 7.0 0.00 0.00 0.00 70 1014.9
20260905070004 74 175 2.0 7.0 0.00 0.00 0.00 71 1014.9
20260905065503 74 181 2.0 5.0 0.00 0.00 0.00 72 1014.9
20260905065005 73 195 2.0 6.0 0.00 0.00 0.00 75 1014.9
20260905064503 72 197 1.0 6.0 0.00 0.00 0.00 75 1014.8
20260905064003 71 208 0.0 6.0 0.00 0.00 0.00 79 1014.7
20260905063505 71 0 0.0 0.0 0.00 0.00 0.00 79 1014.7
20260905063003 70 0 0.0 0.0 0.00 0.00 0.00 81 1014.9
20260905062503 70 0 0.0 0.0 0.00 0.00 0.00 81 1015.1
20260905062005 69 0 0.0 0.0 0.00 0.00 0.00 82 1015.2
20260905061503 68 0 0.0 0.0 0.00 0.00 0.00 85 1015.1
20260905061210 68 0 0.0 0.0 0.00 0.00 0.00 85 1015.1
20260905060505 67 0 0.0 0.0 0.00 0.00 0.00 86 1015.1
20260905060004 66 0 0.0 0.0 0.00 0.00 0.00 86 1015.2
20260905055504 66 0 0.0 0.0 0.00 0.00 0.00 86 1015.1
20260905055005 65 0 0.0 0.0 0.00 0.00 0.00 87 1015.2
20260905054503 64 0 0.0 0.0 0.00 0.00 0.00 87 1015.3
20260905054003 64 0 0.0 0.0 0.00 0.00 0.00 88 1015.2
20260905053505 64 0 0.0 0.0 0.00 0.00 0.00 88 1015.1
20260905053003 63 0 0.0 0.0 0.00 0.00 0.00 88 1015.0
20260905052503 63 0 0.0 0.0 0.00 0.00 0.00 89 1014.9
20260905052005 63 0 0.0 0.0 0.00 0.00 0.00 88 1014.9
20260905051503 62 0 0.0 0.0 0.00 0.00 0.00 88 1014.7
20260905051003 62 0 0.0 0.0 0.00 0.00 0.00 88 1014.7
20260905050505 62 0 0.0 0.0 0.00 0.00 0.00 87 1014.7
20260905050004 62 0 0.0 0.0 0.00 0.00 0.00 87 1014.6
20260905045503 62 0 0.0 0.0 0.00 0.00 0.00 87 1014.5
20260905045005 62 0 0.0 0.0 0.00 0.00 0.00 86 1014.6
20260905044503 62 0 0.0 0.0 0.00 0.00 0.00 87 1014.5
20260905044212 62 0 0.0 0.0 0.00 0.00 0.00 86 1014.4
20260905043505 62 0 0.0 0.0 0.00 0.00 0.00 86 1014.4
20260905043003 62 0 0.0 0.0 0.00 0.00 0.00 86 1014.3
20260905042710 62 0 0.0 0.0 0.00 0.00 0.00 86 1014.3
20260905042005 62 0 0.0 0.0 0.00 0.00 0.00 85 1014.3
20260905041711 62 0 0.0 0.0 0.00 0.00 0.00 86 1014.3
20260905041003 62 0 0.0 0.0 0.00 0.00 0.00 86 1014.2
20260905040505 62 0 0.0 0.0 0.00 0.00 0.00 86 1014.1
20260905040004 62 0 0.0 0.0 0.00 0.00 0.00 86 1014.2
20260905035503 63 0 0.0 0.0 0.00 0.00 0.00 85 1014.1
20260905035005 63 0 0.0 0.0 0.00 0.00 0.00 86 1014.0
20260905034503 63 0 0.0 0.0 0.00 0.00 0.00 86 1014.0
20260905034003 63 0 0.0 0.0 0.00 0.00 0.00 86 1014.0
20260905033505 63 0 0.0 0.0 0.00 0.00 0.00 85 1014.0
20260905033004 63 0 0.0 0.0 0.00 0.00 0.00 85 1013.9
20260905032503 63 0 0.0 0.0 0.00 0.00 0.00 85 1013.9
20260905032005 63 0 0.0 0.0 0.00 0.00 0.00 85 1013.9
20260905031711 63 0 0.0 0.0 0.00 0.00 0.00 85 1013.9